Weather History for Le Puy, France

Change the Weather History Date:

Sunday, October 14, 2012

  Actual Average Record
Temperature  
Mean Temperature 46 °F -  
Max Temperature 56 °F - - ()
Min Temperature 37 °F - - ()
Degree Days  
Heating Degree Days 18    
Moisture  
Dew Point 39 °F    
Average Humidity 76    
Maximum Humidity 100    
Minimum Humidity 47    
Precipitation  
Precipitation 0.02 in - - ()
Sea Level Pressure  
Sea Level Pressure 29.69 in    
Wind  
Wind Speed 5 mph ()    
Max Wind Speed 18 mph    
Max Gust Speed 33 mph    
Visibility 6.6 miles    
Events Rain    
T = Trace of Precipitation, MM = Missing Value Source: Averaged Metar Reports

Daily Weather History Graph

Daily Weather History Graph

Search for Another Location

Airport:

Trip Planner

Search our weather history database for the weather conditions in past years. The results will help you decide how hot, cold, wet, or windy it might be!

Date:

Astronomy

Oct. 14, 2012 Rise Set
Actual Time 7:59 AM CEST 7:01 PM CEST
Civil Twilight 7:30 AM CEST 7:30 PM CEST
Nautical Twilight 6:56 AM CEST 8:04 PM CEST
Astronomical Twilight 6:21 AM CEST 8:38 PM CEST
Moon 6:39 AM CEST (10/14) 6:11 PM CEST (10/14)
Length of Visible Light 12h 00m
Length of Day
11h 01m
Waning Crescent, 2% of the Moon is Illuminated
Oct 14
Waning Crescent
Oct 15
New
Oct 22
First Quarter
Oct 29
Full
Nov 7
Last Quarter

Hourly Weather History & Observations

Time (CEST) Temp. Windchill Dew Point Humidity Pressure Visibility Wind Dir Wind Speed Gust Speed Precip Events Conditions
12:00 AM 44.6 °F - 37.4 °F 76% 29.92 in 6.2 mi Variable 2.3 mph - N/A   Unknown
12:30 AM 44.6 °F - 37.4 °F 76% 29.89 in 6.2 mi Variable 2.3 mph - N/A   Unknown
1:00 AM 44.6 °F - 39.2 °F 81% 29.89 in 6.2 mi Variable 2.3 mph - N/A   Unknown
1:30 AM 44.6 °F 42.2 °F 37.4 °F 76% 29.89 in 6.2 mi SW 4.6 mph - N/A   Unknown
2:00 AM 41.0 °F - 37.4 °F 87% 29.86 in 6.2 mi Variable 2.3 mph - N/A   Unknown
2:30 AM 44.6 °F 42.2 °F 39.2 °F 81% 29.86 in 6.2 mi West 4.6 mph - N/A   Unknown
3:00 AM 42.8 °F 41.1 °F 39.2 °F 87% 29.86 in 6.2 mi Variable 3.5 mph - N/A   Unknown
3:30 AM 42.8 °F - 39.2 °F 87% 29.83 in 6.2 mi Variable 1.2 mph - N/A   Unknown
4:00 AM 42.8 °F 41.1 °F 37.4 °F 81% 29.83 in 6.2 mi Variable 3.5 mph - N/A   Unknown
5:00 AM 39.2 °F - 37.4 °F 93% 29.80 in 6.2 mi Variable 2.3 mph - N/A   Unknown
5:30 AM 39.2 °F 37.0 °F 37.4 °F 93% 29.80 in 6.2 mi ESE 3.5 mph - N/A   Unknown
6:00 AM 39.2 °F - 37.4 °F 93% 29.77 in 6.2 mi Calm Calm - N/A   Unknown
6:30 AM 37.4 °F - 37.4 °F 100% 29.77 in 6.2 mi Calm Calm - N/A   Unknown
7:00 AM 37.4 °F - 35.6 °F 93% 29.77 in 6.2 mi Calm Calm - N/A   Unknown
7:30 AM 37.4 °F - 37.4 °F 100% 29.74 in 6.2 mi Calm Calm - N/A   Unknown
8:00 AM 39 °F - 38 °F 96%  in 12 mi Calm Calm - -   Clear
8:00 AM 39.2 °F - 39.2 °F 100% 29.74 in 6.2 mi Calm Calm - N/A   Unknown
8:30 AM 41.0 °F - 39.2 °F 93% 29.74 in 6.2 mi Variable 2.3 mph - N/A   Unknown
9:00 AM 41.0 °F - 39.2 °F 93% 29.74 in 6.2 mi Variable 2.3 mph - N/A   Unknown
9:30 AM 46.4 °F 43.5 °F 41.0 °F 81% 29.68 in 6.2 mi South 5.8 mph - N/A   Unknown
10:00 AM 44.6 °F 43.1 °F 39.2 °F 81% 29.68 in 6.2 mi SE 3.5 mph - N/A   Unknown
10:30 AM 46.4 °F 42.4 °F 39.2 °F 76% 29.68 in 6.2 mi SSE 8.1 mph - N/A   Unknown
11:00 AM 48.2 °F - 39.2 °F 71% 29.68 in 6.2 mi South 4.6 mph - N/A   Unknown
12:00 PM 50.0 °F - 39.2 °F 66% 29.65 in 6.2 mi ESE 8.1 mph - N/A   Unknown
12:30 PM 50.0 °F - 39.2 °F 66% 29.65 in 6.2 mi SE 10.4 mph - N/A   Partly Cloudy
1:00 PM 53.6 °F - 39.2 °F 58% 29.62 in 6.2 mi SE 8.1 mph - N/A   Partly Cloudy
1:30 PM 53.6 °F - 37.4 °F 54% 29.62 in 6.2 mi South 9.2 mph - N/A   Scattered Clouds
2:00 PM 54 °F - 39 °F 47%  in 12 mi SW 18.4 mph - -   Clear
2:00 PM 53.6 °F - 39.2 °F 58% 29.59 in 6.2 mi SW 18.4 mph 32.2 mph N/A   Scattered Clouds
2:30 PM 53.6 °F - 41.0 °F 62% 29.56 in 6.2 mi SSW 16.1 mph 33.4 mph N/A   Partly Cloudy
3:00 PM 55.4 °F - 39.2 °F 54% 29.56 in 6.2 mi SSW 18.4 mph 32.2 mph N/A   Unknown
3:30 PM 53.6 °F - 41.0 °F 62% 29.56 in 6.2 mi SSW 15.0 mph 28.8 mph N/A Rain Light Rain
4:00 PM 53.6 °F - 39.2 °F 58% 29.59 in 6.2 mi SSW 11.5 mph 24.2 mph N/A   Partly Cloudy
4:30 PM 51.8 °F - 41.0 °F 67% 29.59 in 6.2 mi SSW 11.5 mph - N/A Rain Light Rain
5:00 PM 51.8 °F - 42.8 °F 71% 29.59 in 6.2 mi SSW 12.7 mph - N/A   Partly Cloudy
5:30 PM 51.8 °F - 41.0 °F 67% 29.56 in 6.2 mi SSW 11.5 mph - N/A   Partly Cloudy
6:00 PM 50.0 °F - 41.0 °F 71% 29.53 in 6.2 mi South 16.1 mph 33.4 mph N/A   Partly Cloudy
6:30 PM 50.0 °F - 41.0 °F 71% 29.56 in 6.2 mi SW 11.5 mph - N/A   Unknown
7:00 PM 50.0 °F - 41.0 °F 71% 29.56 in 6.2 mi SW 10.4 mph - N/A   Unknown
7:30 PM 50.0 °F - 41.0 °F 71% 29.56 in 6.2 mi SW 12.7 mph - N/A   Unknown
8:00 PM 50 °F - 41 °F 62%  in 12 mi SW 10.4 mph - -   Clear
8:00 PM 50.0 °F - 41.0 °F 71% 29.59 in 6.2 mi SW 10.4 mph - N/A   Mostly Cloudy
8:30 PM 48.2 °F - 41.0 °F 76% 29.59 in 6.2 mi WSW 10.4 mph - N/A   Scattered Clouds
9:00 PM 48.2 °F - 41.0 °F 76% 29.59 in 6.2 mi Variable 6.9 mph - N/A   Scattered Clouds
9:30 PM 48.2 °F - 41.0 °F 76% 29.59 in 6.2 mi WSW 11.5 mph - N/A Rain Light Rain
10:00 PM 48.2 °F - 41.0 °F 76% 29.62 in 6.2 mi West 10.4 mph - N/A   Mostly Cloudy
10:30 PM 46.4 °F 44.3 °F 39.2 °F 76% 29.62 in 6.2 mi West 4.6 mph - N/A   Mostly Cloudy
11:00 PM 46.4 °F 42.4 °F 37.4 °F 71% 29.65 in 6.2 mi West 8.1 mph - N/A   Scattered Clouds
11:30 PM 44.6 °F 41.4 °F 37.4 °F 76% 29.65 in 6.2 mi West 5.8 mph - N/A   Unknown